STARLINK-5026, 57260

Orbit data source: Space-Track

STARLINK-5026, 57260 is a payload satellite owned by SpaceX/Seattle (US) in LEO that was launched on Fri, 07 Jul 2023 UTC via an FALCON 9 launch vehicle from the Air Force Western Test Range (AFWTR). Payload-class satellites include a variety of spacecraft equipped with specific instruments for various scientific and technological missions. These include communications satellites like Starlink; space stations such as the ISS; scientific satellites like the Hubble; Earth observation satellites from companies like Planet Labs, Umbra, and HawkEye 360; GPS; miniature CubeSats for education and research; and military/defense satellites.

Loading next visibility...
Identifier
57260, 2023-094AU
Orbit
LEO
Country
Flag of USUS
Related business
Manufacturer
SpaceX/Seattle
Mission
Operational Commercial Communications
Bus & Motor
STARLINK, Unknown motor
Mass
305 kg wet, ~290 kg dry
Launch date (UTC)
2023-07-07 (3 years ago)
Launch vehicle
FALCON 9
Launch site
Air Force Western Test Range (AFWTR)
Object type
Payload
Rocket body
Debris
Shape & HBR
Box + 1 Pan, 10.1 m
Radar Cross Section
11.087 m², Large (>1 m²)

Expand to show TLE details & history
Last TLE update: 2 days ago

TLE from 2 days ago
0 STARLINK-5026
1 57260U 23094AU  26171.35998286 -.00000244  00000-0  67546-6 0  9990
2 57260  43.0040 159.9196 0001535 281.4206  78.6473 15.27576716163585
Epoch: 2026-06-20T08:38Z
TLE epoch observation values (Epoch: 2026-06-20T08:38:22.519Z)
Latitude
-0.00002°
Longitude
121.75002°
Altitude
482.628 km
Speed
7.626 km/s
True Right ascension
10h 39m 40s
True Declination
0° 00' 00"
Sunlit
Object was in daylight at epoch
Visualization orbit readout
Latitude
Unknown
Longitude
Unknown
Altitude
Unknown
Speed
Unknown
Apparent Right ascension
Unknown
Apparent Declination
Unknown
Sunlit
N/A
Visualization observer readout
Local Sidereal Time
21:30:04
Azimuth
Unknown
Elevation
Unknown
Doppler factor
Unknown
Orbital elements
Apogee altitude
486.057 km
Perigee altitude
483.95 km
Semi-major axis
6,863.14 km
Eccentricity
0.00015
Inclination
43.004°
RAAN
159.9196°
Arg. of periapsis
281.4206°
True anomaly
78.66455°
Mean anomaly
78.6473°
Eccentric anomaly
78.65592°
Mean motion
3.81732 °/min
Orbital period
94.31 mins
BSTAR
6.7546e-7
Loading maneuver chart data...
Computing Atmospheric mass density...
Loading historical data...
Loading historical data...
Loading historical data...
Loading historical data...
Loading historical data...
Loading historical data...
Loading historical data...

Documentation

Showing up to 5 results
|